Storm Lake, IA

6:28 PM CDT on March 27, 2017 (GMT -0500)
Storm Lake Municipal

Weather History for KSLB - August, 2012

Change the Weather History Date:

Thursday, August 23, 2012

  Actual Average Record
Temperature  
Mean Temperature 74 °F -  
Max Temperature 89 °F 79 °F 93 °F (1998)
Min Temperature 59 °F 61 °F 50 °F (2015)
Cooling Degree Days 9    
Growing Degree Days 24 (Base 50)    
Moisture  
Dew Point 60 °F    
Average Humidity 61    
Maximum Humidity 82    
Minimum Humidity 40    
Precipitation  
Precipitation 0.00 in - - ()
Sea Level Pressure  
Sea Level Pressure 29.90 in    
Wind  
Wind Speed 11 mph (South)    
Max Wind Speed 23 mph    
Max Gust Speed 34 mph    
Visibility 10 miles    
Events      
Averages and records for this station are not official NWS values.
T = Trace of Precipitation, MM = Missing Value Source: NWS Daily Summary

Daily Weather History Graph

Daily Weather History Graph

Search for Another Location

Airport or City:

Trip Planner

Search our weather history database for the weather conditions in past years. The results will help you decide how hot, cold, wet, or windy it might be!

Date:

Astronomy

Aug. 23, 2012 Rise Set
Actual Time 6:36 AM CDT 8:09 PM CDT
Civil Twilight 6:07 AM CDT 8:38 PM CDT
Nautical Twilight 5:31 AM CDT 9:14 PM CDT
Astronomical Twilight 4:52 AM CDT 9:52 PM CDT
Moon 1:35 PM CDT (8/23) 11:27 PM CDT (8/23)
Length of Visible Light 14h 31m
Length of Day
13h 32m
Waxing Crescent, 40% of the Moon is Illuminated
Aug 23
Waxing Crescent
Aug 24
First Quarter
Aug 31
Full
Sep 8
Last Quarter
Sep 15
New

Hourly Weather History & Observations

Time (CDT) Temp. Heat Index Dew Point Humidity Pressure Visibility Wind Dir Wind Speed Gust Speed Precip Events Conditions
12:15 AM 68.0 °F - 57.2 °F 68% 29.92 in 10.0 mi South 9.2 mph - N/A   Clear
12:35 AM 68.0 °F - 55.4 °F 64% 29.92 in 10.0 mi South 9.2 mph - N/A   Clear
12:55 AM 66.2 °F - 55.4 °F 68% 29.92 in 10.0 mi South 9.2 mph - N/A   Clear
1:15 AM 66.2 °F - 55.4 °F 68% 29.93 in 10.0 mi South 5.8 mph - N/A   Clear
1:35 AM 64.4 °F - 55.4 °F 73% 29.93 in 10.0 mi South 8.1 mph - N/A   Clear
1:55 AM 62.6 °F - 55.4 °F 77% 29.92 in 10.0 mi South 9.2 mph - N/A   Clear
2:15 AM 64.4 °F - 55.4 °F 73% 29.92 in 10.0 mi South 9.2 mph - N/A   Clear
2:35 AM 60.8 °F - 55.4 °F 82% 29.92 in 10.0 mi SSE 9.2 mph - N/A   Clear
2:55 AM 60.8 °F - 55.4 °F 82% 29.92 in 10.0 mi SSE 9.2 mph - N/A   Clear
3:15 AM 60.8 °F - 55.4 °F 82% 29.92 in 10.0 mi South 9.2 mph - N/A   Clear
3:35 AM 62.6 °F - 53.6 °F 72% 29.92 in 10.0 mi South 6.9 mph - N/A   Clear
3:55 AM 60.8 °F - 53.6 °F 77% 29.92 in 10.0 mi South 8.1 mph - N/A   Clear
4:15 AM 59.0 °F - 53.6 °F 82% 29.93 in 10.0 mi South 6.9 mph - N/A   Clear
4:35 AM 62.6 °F - 53.6 °F 72% 29.93 in 10.0 mi South 5.8 mph - N/A   Clear
4:55 AM 60.8 °F - 53.6 °F 77% 29.93 in 10.0 mi South 8.1 mph - N/A   Clear
5:15 AM 59.0 °F - 53.6 °F 82% 29.94 in 10.0 mi South 6.9 mph - N/A   Clear
5:35 AM 59.0 °F - 53.6 °F 82% 29.94 in 10.0 mi South 6.9 mph - N/A   Clear
5:55 AM 59.0 °F - 53.6 °F 82% 29.94 in 10.0 mi SSE 6.9 mph - N/A   Clear
6:15 AM 59.0 °F - 53.6 °F 82% 29.95 in 10.0 mi SSE 8.1 mph - N/A   Clear
6:35 AM 60.8 °F - 53.6 °F 77% 29.95 in 10.0 mi South 9.2 mph - N/A   Clear
6:55 AM 60.8 °F - 53.6 °F 77% 29.95 in 10.0 mi South 9.2 mph - N/A   Clear
7:15 AM 60.8 °F - 53.6 °F 77% 29.95 in 10.0 mi South 9.2 mph - N/A   Clear
7:35 AM 60.8 °F - 53.6 °F 77% 29.95 in 10.0 mi South 8.1 mph - N/A   Clear
7:55 AM 62.6 °F - 55.4 °F 77% 29.95 in 10.0 mi South 6.9 mph - N/A   Clear
8:15 AM 64.4 °F - 55.4 °F 73% 29.95 in 10.0 mi South 8.1 mph - N/A   Clear
8:35 AM 69.8 °F - 55.4 °F 60% 29.94 in 9.0 mi South 9.2 mph - N/A   Clear
8:55 AM 71.6 °F - 57.2 °F 60% 29.94 in 10.0 mi South 11.5 mph - N/A   Clear
9:15 AM 75.2 °F - 57.2 °F 53% 29.94 in 10.0 mi South 12.7 mph 18.4 mph N/A   Clear
9:35 AM 75.2 °F - 59.0 °F 57% 29.93 in 10.0 mi SSW 15.0 mph - N/A   Clear
9:55 AM 77.0 °F - 60.8 °F 57% 29.93 in 10.0 mi SSW 12.7 mph 23.0 mph N/A   Clear
10:15 AM 80.6 °F 81.8 °F 62.6 °F 54% 29.93 in 10.0 mi SSW 15.0 mph 23.0 mph N/A   Clear
10:35 AM 80.6 °F 81.8 °F 62.6 °F 54% 29.93 in 10.0 mi SSW 16.1 mph 24.2 mph N/A   Clear
10:55 AM 82.4 °F 83.4 °F 62.6 °F 51% 29.93 in 10.0 mi SSW 16.1 mph 27.6 mph N/A   Clear
11:15 AM 82.4 °F 83.9 °F 64.4 °F 54% 29.93 in 10.0 mi SSW 19.6 mph 29.9 mph N/A   Clear
11:35 AM 84.2 °F 85.6 °F 64.4 °F 51% 29.92 in 9.0 mi SSW 20.7 mph 29.9 mph N/A   Clear
11:55 AM 84.2 °F 85.6 °F 64.4 °F 51% 29.91 in 10.0 mi SSW 23.0 mph 31.1 mph N/A   Clear
12:15 PM 86.0 °F 87.3 °F 64.4 °F 48% 29.91 in 10.0 mi SSW 18.4 mph 31.1 mph N/A   Clear
12:35 PM 86.0 °F 87.3 °F 64.4 °F 48% 29.90 in 10.0 mi South 17.3 mph 25.3 mph N/A   Partly Cloudy
12:55 PM 87.8 °F 89.4 °F 64.4 °F 46% 29.89 in 10.0 mi SSW 18.4 mph 28.8 mph N/A   Partly Cloudy
1:15 PM 87.8 °F 89.4 °F 64.4 °F 46% 29.89 in 10.0 mi SSW 16.1 mph 33.4 mph N/A   Partly Cloudy
1:35 PM 87.8 °F 88.5 °F 62.6 °F 43% 29.89 in 10.0 mi South 20.7 mph 29.9 mph N/A   Mostly Cloudy
1:55 PM 87.8 °F 88.5 °F 62.6 °F 43% 29.89 in 10.0 mi SSW 21.9 mph 31.1 mph N/A   Mostly Cloudy
2:15 PM 87.8 °F 88.5 °F 62.6 °F 43% 29.89 in 9.0 mi SSW 21.9 mph 29.9 mph N/A   Scattered Clouds
2:35 PM 87.8 °F 88.5 °F 62.6 °F 43% 29.88 in 10.0 mi SSW 18.4 mph 28.8 mph N/A   Partly Cloudy
2:55 PM 87.8 °F 88.5 °F 62.6 °F 43% 29.87 in 10.0 mi SSW 21.9 mph 32.2 mph N/A   Partly Cloudy
3:15 PM 89.6 °F 90.1 °F 62.6 °F 40% 29.87 in 10.0 mi SSW 18.4 mph 27.6 mph N/A   Partly Cloudy
3:35 PM 89.6 °F 90.1 °F 62.6 °F 40% 29.87 in 10.0 mi SSW 21.9 mph 34.5 mph N/A   Clear
3:55 PM 87.8 °F 88.5 °F 62.6 °F 43% 29.87 in 10.0 mi SSW 20.7 mph 29.9 mph N/A   Partly Cloudy
4:15 PM 87.8 °F 88.5 °F 62.6 °F 43% 29.87 in 10.0 mi SSW 23.0 mph 31.1 mph N/A   Partly Cloudy
4:35 PM 87.8 °F 88.5 °F 62.6 °F 43% 29.88 in 10.0 mi SSW 19.6 mph 29.9 mph N/A   Scattered Clouds
4:55 PM 87.8 °F 87.6 °F 60.8 °F 40% 29.88 in 10.0 mi SSW 19.6 mph 28.8 mph N/A   Partly Cloudy
5:15 PM 86.0 °F 86.1 °F 60.8 °F 43% 29.87 in 10.0 mi SSW 17.3 mph 25.3 mph N/A   Partly Cloudy
5:35 PM 86.0 °F 86.6 °F 62.6 °F 45% 29.88 in 10.0 mi SSW 13.8 mph 23.0 mph N/A   Clear
5:55 PM 86.0 °F 86.6 °F 62.6 °F 45% 29.87 in 10.0 mi SSW 13.8 mph 21.9 mph N/A   Clear
6:15 PM 84.2 °F 85.0 °F 62.6 °F 48% 29.87 in 10.0 mi SSW 12.7 mph - N/A   Clear
6:35 PM 86.0 °F 86.6 °F 62.6 °F 45% 29.86 in 10.0 mi SSW 12.7 mph 20.7 mph N/A   Clear
6:55 PM 84.2 °F 85.0 °F 62.6 °F 48% 29.86 in 10.0 mi SSW 15.0 mph - N/A   Clear
7:15 PM 82.4 °F 83.4 °F 62.6 °F 51% 29.86 in 10.0 mi SSW 11.5 mph - N/A   Clear
7:35 PM 82.4 °F 83.4 °F 62.6 °F 51% 29.86 in 10.0 mi SSW 9.2 mph - N/A   Clear
7:55 PM 80.6 °F 81.8 °F 62.6 °F 54% 29.86 in 10.0 mi South 6.9 mph - N/A   Clear
8:15 PM 75.2 °F - 64.4 °F 69% 29.87 in 10.0 mi SSE 8.1 mph - N/A   Clear
8:35 PM 75.2 °F - 64.4 °F 69% 29.86 in 10.0 mi SSE 8.1 mph - N/A   Clear
8:55 PM 75.2 °F - 64.4 °F 69% 29.87 in 10.0 mi SSE 8.1 mph - N/A   Clear
9:15 PM 75.2 °F - 62.6 °F 65% 29.88 in 10.0 mi South 8.1 mph - N/A   Clear
9:35 PM 75.2 °F - 62.6 °F 65% 29.88 in 10.0 mi South 8.1 mph - N/A   Clear
9:55 PM 75.2 °F - 62.6 °F 65% 29.88 in 10.0 mi South 9.2 mph - N/A   Clear
10:15 PM 73.4 °F - 62.6 °F 69% 29.88 in 10.0 mi South 5.8 mph - N/A   Clear
10:35 PM 73.4 °F - 62.6 °F 69% 29.88 in 10.0 mi South 8.1 mph - N/A   Clear
10:55 PM 73.4 °F - 60.8 °F 65% 29.87 in 10.0 mi South 8.1 mph - N/A   Clear
11:15 PM 73.4 °F - 60.8 °F 65% 29.85 in 10.0 mi South 10.4 mph - N/A   Clear
11:35 PM 73.4 °F - 59.0 °F 61% 29.85 in 10.0 mi South 10.4 mph - N/A   Clear
11:55 PM 73.4 °F - 59.0 °F 61% 29.86 in 10.0 mi South 9.2 mph - N/A   Clear